OK2ZAW-23 Weather Reports


time (UTC)temp
F
wind
direction
speed
knots
gust
knots
rain 1hr
in
rain 24hr
in
rain mn
in
humidity
%
barometer
mb
20260506133344 79 0 0.0 0.0 0.00 0.00 0.00 35 1003.0
20260506132829 77 0 0.0 0.0 0.00 0.00 0.00 36 1003.1
20260506132315 77 0 0.0 0.0 0.00 0.00 0.00 36 1003.2
20260506131245 76 0 0.0 0.0 0.00 0.00 0.00 36 1003.4
20260506125701 75 0 0.0 0.0 0.00 0.00 0.00 36 1003.6
20260506123603 75 0 0.0 0.0 0.00 0.00 0.00 37 1003.9
20260506123048 76 0 0.0 0.0 0.00 0.00 0.00 37 1003.9
20260506122534 77 0 0.0 0.0 0.00 0.00 0.00 37 1004.1
20260506115405 77 0 0.0 0.0 0.00 0.00 0.00 36 1004.2
20260506114336 76 0 0.0 0.0 0.00 0.00 0.00 37 1004.2
20260506113307 76 0 0.0 0.0 0.00 0.00 0.00 36 1004.3
20260506105109 77 0 0.0 0.0 0.00 0.00 0.00 40 1004.6
20260506104555 76 0 0.0 0.0 0.00 0.00 0.00 41 1004.7
20260506103525 75 0 0.0 0.0 0.00 0.00 0.00 43 1004.7
20260506103011 74 0 0.0 0.0 0.00 0.00 0.00 44 1004.8
20260506102457 74 0 0.0 0.0 0.00 0.00 0.00 44 1004.8
20260506101942 74 0 0.0 0.0 0.00 0.00 0.00 43 1004.8
20260506101427 74 0 0.0 0.0 0.00 0.00 0.00 44 1004.9
20260506100913 74 0 0.0 0.0 0.00 0.00 0.00 45 1004.9
20260506095845 73 0 0.0 0.0 0.00 0.00 0.00 46 1005.1
20260506095330 72 0 0.0 0.0 0.00 0.00 0.00 44 1005.0
20260506093232 71 0 0.0 0.0 0.00 0.00 0.00 48 1005.1
20260506092203 72 0 0.0 0.0 0.00 0.00 0.00 51 1005.1
20260506091649 71 0 0.0 0.0 0.00 0.00 0.00 53 1004.9
20260506091135 70 0 0.0 0.0 0.00 0.00 0.00 54 1005.0
20260506090620 69 0 0.0 0.0 0.00 0.00 0.00 54 1005.1
20260506090106 67 0 0.0 0.0 0.00 0.00 0.00 54 1005.1
20260506085552 67 0 0.0 0.0 0.00 0.00 0.00 54 1005.0
20260506085038 66 0 0.0 0.0 0.00 0.00 0.00 55 1005.0
20260506084010 67 0 0.0 0.0 0.00 0.00 0.00 59 1005.2
20260506082942 67 0 0.0 0.0 0.00 0.00 0.00 58 1005.2
20260506082428 67 0 0.0 0.0 0.00 0.00 0.00 57 1005.2
20260506081914 66 0 0.0 0.0 0.00 0.00 0.00 56 1005.2
20260506073209 62 0 0.0 0.0 0.00 0.00 0.00 68 1005.3
20260506072655 62 0 0.0 0.0 0.00 0.00 0.00 68 1005.3
20260506071628 61 0 0.0 0.0 0.00 0.00 0.00 71 1005.4
20260506061343 57 0 0.0 0.0 0.00 0.00 0.00 85 1005.1
20260506060830 57 0 0.0 0.0 0.00 0.00 0.00 86 1005.0
20260506050548 54 0 0.0 0.0 0.00 0.00 0.00 10 1004.9
20260506045008 53 0 0.0 0.0 0.00 0.00 0.00 10 1004.6
20260506043942 53 0 0.0 0.0 0.00 0.00 0.00 10 1004.5
20260506043428 53 0 0.0 0.0 0.00 0.00 0.00 10 1004.5
20260506042914 53 0 0.0 0.0 0.00 0.00 0.00 10 1004.4
20260506041848 52 0 0.0 0.0 0.00 0.00 0.00 10 1004.3
20260506040822 52 0 0.0 0.0 0.00 0.00 0.00 10 1004.3
20260506035754 52 0 0.0 0.0 0.00 0.00 0.00 10 1004.1
20260506033701 53 0 0.0 0.0 0.00 0.00 0.00 10 1003.9
20260506030541 54 0 0.0 0.0 0.00 0.00 0.00 10 1004.0
20260506025514 54 0 0.0 0.0 0.00 0.00 0.00 10 1004.0
20260506022353 54 0 0.0 0.0 0.00 0.00 0.00 10 1003.9
20260506021840 54 0 0.0 0.0 0.00 0.00 0.00 10 1004.0
20260506021326 54 0 0.0 0.0 0.00 0.00 0.00 10 1003.9
20260506020259 54 0 0.0 0.0 0.00 0.00 0.00 10 1003.7
20260506014206 55 0 0.0 0.0 0.00 0.00 0.00 10 1003.6
20260506013652 55 0 0.0 0.0 0.00 0.00 0.00 10 1003.6
20260506011045 56 0 0.0 0.0 0.00 0.00 0.00 10 1003.4
20260506010018 56 0 0.0 0.0 0.00 0.00 0.00 10 1003.4
20260506005505 56 0 0.0 0.0 0.00 0.00 0.00 10 1003.5
20260506004950 56 0 0.0 0.0 0.00 0.00 0.00 98 1003.5
20260506004437 56 0 0.0 0.0 0.00 0.00 0.00 96 1003.5
20260506003924 56 0 0.0 0.0 0.00 0.00 0.00 93 1003.5
20260506003411 56 0 0.0 0.0 0.00 0.00 0.00 92 1003.5
20260506002343 57 0 0.0 0.0 0.00 0.00 0.00 81 1003.5
20260506001829 57 0 0.0 0.0 0.00 0.00 0.00 79 1003.4
20260506001316 57 0 0.0 0.0 0.00 0.00 0.00 77 1003.4
20260506000249 57 0 0.0 0.0 0.00 0.00 0.00 72 1003.2
20260505235735 57 0 0.0 0.0 0.00 0.00 0.00 68 1003.2
20260505233641 57 0 0.0 0.0 0.00 0.00 0.00 64 1003.5
20260505233127 57 0 0.0 0.0 0.00 0.00 0.00 63 1003.5
20260505232614 57 0 0.0 0.0 0.00 0.00 0.00 61 1003.5
20260505231546 57 0 0.0 0.0 0.00 0.00 0.00 59 1003.3
20260505231034 58 0 0.0 0.0 0.00 0.00 0.00 59 1003.2
20260505230519 58 0 0.0 0.0 0.00 0.00 0.00 58 1003.2
20260505230007 58 0 0.0 0.0 0.00 0.00 0.00 58 1003.1
20260505224939 57 0 0.0 0.0 0.00 0.00 0.00 57 1002.9
20260505223911 57 0 0.0 0.0 0.00 0.00 0.00 57 1002.9
20260505222844 58 0 0.0 0.0 0.00 0.00 0.00 58 1003.0
20260505222330 57 0 0.0 0.0 0.00 0.00 0.00 58 1003.0
20260505220749 57 0 0.0 0.0 0.00 0.00 0.00 58 1002.7
20260505215723 57 0 0.0 0.0 0.00 0.00 0.00 60 1003.1
20260505215209 57 0 0.0 0.0 0.00 0.00 0.00 57 1002.5
20260505213628 57 0 0.0 0.0 0.00 0.00 0.00 58 1002.2
20260505212601 57 0 0.0 0.0 0.00 0.00 0.00 57 1002.1
20260505211534 58 0 0.0 0.0 0.00 0.00 0.00 56 1002.2
20260505210506 58 0 0.0 0.0 0.00 0.00 0.00 55 1002.1
20260505205953 58 0 0.0 0.0 0.00 0.00 0.00 55 1002.0
20260505203344 59 0 0.0 0.0 0.00 0.00 0.00 52 1002.4
20260505202317 60 0 0.0 0.0 0.00 0.00 0.00 52 1002.3
20260505201803 60 0 0.0 0.0 0.00 0.00 0.00 50 1002.3
20260505201249 60 0 0.0 0.0 0.00 0.00 0.00 50 1002.3
20260505200736 61 0 0.0 0.0 0.00 0.00 0.00 49 1002.3
20260505200222 61 0 0.0 0.0 0.00 0.00 0.00 48 1002.3
20260505195154 61 0 0.0 0.0 0.00 0.00 0.00 47 1002.3
20260505194641 62 0 0.0 0.0 0.00 0.00 0.00 47 1002.3
20260505192545 63 0 0.0 0.0 0.00 0.00 0.00 45 1002.2
20260505192031 63 0 0.0 0.0 0.00 0.00 0.00 45 1002.3
20260505191518 64 0 0.0 0.0 0.00 0.00 0.00 44 1002.3
20260505191004 64 0 0.0 0.0 0.00 0.00 0.00 43 1002.3
20260505185421 65 0 0.0 0.0 0.00 0.00 0.00 42 1002.1
20260505184354 66 0 0.0 0.0 0.00 0.00 0.00 41 1002.1
20260505183839 66 0 0.0 0.0 0.00 0.00 0.00 39 1002.0
20260505183325 67 0 0.0 0.0 0.00 0.00 0.00 37 1002.0
20260505180715 69 0 0.0 0.0 0.00 0.00 0.00 35 1001.8
20260505174103 71 0 0.0 0.0 0.00 0.00 0.00 29 1001.8
20260505170936 75 0 0.0 0.0 0.00 0.00 0.00 25 1001.8
20260505170421 76 0 0.0 0.0 0.00 0.00 0.00 25 1001.9
20260505164837 78 0 0.0 0.0 0.00 0.00 0.00 24 1001.9
20260505161707 84 0 0.0 0.0 0.00 0.00 0.00 21 1002.3
20260505161153 85 0 0.0 0.0 0.00 0.00 0.00 20 1002.2
20260505152946 96 0 0.0 0.0 0.00 0.00 0.00 18 1002.3
20260505152430 96 0 0.0 0.0 0.00 0.00 0.00 18 1002.4
20260505151358 96 0 0.0 0.0 0.00 0.00 0.00 19 1002.5
20260505150842 96 0 0.0 0.0 0.00 0.00 0.00 18 1002.3
20260505140532 90 0 0.0 0.0 0.00 0.00 0.00 25 1003.5